Weather History for Lawrence, MA

Change the Weather History Date:

Wednesday, October 23, 2013

  Actual Average Record
Temperature  
Mean Temperature 44 °F -  
Max Temperature 53 °F 61 °F 85 °F (1979)
Min Temperature 37 °F 39 °F 22 °F (1969)
Degree Days  
Heating Degree Days 20    
Moisture  
Dew Point 32 °F    
Average Humidity 57    
Maximum Humidity 82    
Minimum Humidity 41    
Precipitation  
Precipitation 0.00 in - - ()
Sea Level Pressure  
Sea Level Pressure 29.71 in    
Wind  
Wind Speed 2 mph (WSW)    
Max Wind Speed 9 mph    
Max Gust Speed -    
Visibility 10 miles    
Events      
Averages and records for this station are not official NWS values.
T = Trace of Precipitation, MM = Missing Value Source: NWS Daily Summary

Daily Weather History Graph

Daily Weather History Graph

Search for Another Location

Airport:

Trip Planner

Search our weather history database for the weather conditions in past years. The results will help you decide how hot, cold, wet, or windy it might be!

Date:

Astronomy

Oct. 23, 2013 Rise Set
Actual Time 7:07 AM EDT 5:49 PM EDT
Civil Twilight 6:38 AM EDT 6:18 PM EDT
Nautical Twilight 6:05 AM EDT 6:51 PM EDT
Astronomical Twilight 5:32 AM EDT 7:23 PM EDT
Moon 9:14 PM EDT (10/23) 11:25 AM EDT (10/23)
Length of Visible Light 11h 39m
Length of Day
10h 41m
Waning Gibbous, 79% of the Moon is Illuminated
Oct 23
Waning Gibbous
Oct 26
Last Quarter
Nov 3
New
Nov 10
First Quarter
Nov 17
Full

Hourly Weather History & Observations

Time (EDT) Temp. Windchill Dew Point Humidity Pressure Visibility Wind Dir Wind Speed Gust Speed Precip Events Conditions
12:54 AM 46.9 °F - 33.1 °F 59% 29.81 in 10.0 mi Calm Calm - N/A   Clear
1:54 AM 44.1 °F 42.5 °F 32.0 °F 63% 29.81 in 10.0 mi WSW 3.5 mph - N/A   Clear
2:54 AM 43.0 °F - 32.0 °F 65% 29.81 in 10.0 mi Calm Calm - N/A   Scattered Clouds
3:54 AM 39.0 °F - 32.0 °F 76% 29.81 in 10.0 mi Calm Calm - N/A   Clear
4:54 AM 37.9 °F - 32.0 °F 79% 29.79 in 10.0 mi Calm Calm - N/A   Clear
5:54 AM 37.9 °F - 30.9 °F 76% 29.78 in 10.0 mi Calm Calm - N/A   Clear
6:54 AM 37.0 °F - 32.0 °F 82% 29.78 in 10.0 mi Calm Calm - N/A   Mostly Cloudy
7:54 AM 39.9 °F 36.7 °F 33.1 °F 77% 29.79 in 10.0 mi SSW 4.6 mph - N/A   Mostly Cloudy
8:54 AM 45.0 °F - 35.1 °F 68% 29.78 in 10.0 mi Calm Calm - N/A   Clear
9:54 AM 50.0 °F - 32.0 °F 50% 29.77 in 10.0 mi West 3.5 mph - N/A   Clear
10:54 AM 52.0 °F - 30.0 °F 43% 29.76 in 10.0 mi SW 4.6 mph - N/A   Clear
11:54 AM 52.0 °F - 28.9 °F 41% 29.73 in 10.0 mi WSW 5.8 mph - N/A   Mostly Cloudy
12:54 PM 52.0 °F - 30.0 °F 43% 29.70 in 10.0 mi Calm Calm - N/A   Overcast
1:54 PM 52.0 °F - 30.0 °F 43% 29.66 in 10.0 mi West 5.8 mph - N/A   Overcast
2:54 PM 52.0 °F - 28.9 °F 41% 29.63 in 10.0 mi Calm Calm - N/A   Overcast
3:54 PM 52.0 °F - 30.0 °F 43% 29.63 in 10.0 mi West 3.5 mph - N/A   Scattered Clouds
4:54 PM 51.1 °F - 30.0 °F 44% 29.63 in 10.0 mi West 3.5 mph - N/A   Overcast
5:54 PM 50.0 °F - 30.9 °F 48% 29.62 in 10.0 mi WSW 3.5 mph - N/A   Mostly Cloudy
6:54 PM 48.9 °F - 32.0 °F 52% 29.63 in 10.0 mi Calm Calm - N/A   Overcast
7:54 PM 48.0 °F - 33.1 °F 56% 29.62 in 10.0 mi Calm Calm - N/A   Mostly Cloudy
8:54 PM 46.0 °F - 34.0 °F 63% 29.63 in 10.0 mi Calm Calm - N/A   Clear
9:54 PM 46.9 °F - 33.1 °F 59% 29.64 in 10.0 mi West 4.6 mph - N/A   Overcast
10:54 PM 46.9 °F - 30.9 °F 54% 29.64 in 10.0 mi Variable 4.6 mph - N/A   Overcast
11:54 PM 48.0 °F - 30.9 °F 52% 29.65 in 10.0 mi West 9.2 mph - N/A   Overcast